• Join FlightAware (Why Join?)
  • Login
  • US Flag 
03:19AM EST


 

Airport Tracker/Info


-or-


 

Live Flight TrackerFlight Track Log ✈ EJA951 ✈ 11-Nov-2013 ✈ KSBD - KLAS

Flight Track Log - Related Links

Times and Time Zones

All times are in EST time to prevent confusion due to time zone crossing. See the EJA951 flight status page for this flight to view local times or setup timezone preferences in your user account.

Time Position Orientation Groundspeed Altitude Reporting Facility
EST Latitude Longitude Course Direction KTS MPH feet Rate Location/Type
08:40PM 34.0761 -117.2736 200° South 197 227 3,100  Level Los Angeles Center
08:40PM 34.0167 -117.3000 200° South 223 257 6,800 3,661 Climbing Southern California TRACON
08:41PM 33.9833 -117.2500 129° Southeast 223 257 10,300 1,302 Climbing Southern California TRACON
08:44PM 33.8606 -117.0956 134° Southeast 341 392 10,900 408 Climbing Los Angeles Center
08:45PM 33.7872 -117.0011 133° Southeast 379 436 11,600 1,065 Climbing Los Angeles Center
08:46PM 33.7128 -116.9058 133° Southeast 390 449 13,100 1,065 Climbing Los Angeles Center
08:47PM 33.6811 -116.7572 104° East 388 447 13,800 677 Climbing Los Angeles Center
08:48PM 33.6692 -116.6219 96° East 402 463 14,500 1,065 Climbing Los Angeles Center
08:49PM 33.6567 -116.4883 96° East 402 463 16,000 1,452 Climbing Los Angeles Center
08:50PM 33.6450 -116.3575 96° East 396 456 17,500 1,452 Climbing Los Angeles Center
08:51PM 33.6358 -116.2247 95° East 397 457 19,000 1,452 Climbing Los Angeles Center
08:52PM 33.6936 -116.1131 58° Northeast 399 459 20,500 1,403 Climbing Los Angeles Center
08:53PM 33.7819 -116.0353 36° Northeast 395 455 21,900 1,210 Climbing Los Angeles Center
08:54PM 33.8978 -115.9431 33° Northeast 412 474 23,000 532 Climbing Los Angeles Center
08:55PM 34.0014 -115.8583 34° Northeast 444 511 23,000  Level Los Angeles Center
08:56PM 34.1028 -115.7575 39° Northeast 478 550 23,000  Level Los Angeles Center
08:57PM 34.1492 -115.6036 70° East 488 562 23,000  Level Los Angeles Center
08:58PM 34.1831 -115.4497 75° East 477 549 23,000  Level Los Angeles Center
08:59PM 34.2161 -115.2981 75° East 470 541 23,000  Level Los Angeles Center
09:00PM 34.2489 -115.1439 76° East 472 543 23,000  Level Los Angeles Center
09:01PM 34.2875 -114.9606 76° East 470 541 23,000  Level Los Angeles Center
09:02PM 34.3131 -114.8397 76° East 468 539 23,000  Level Los Angeles Center
09:03PM 34.3525 -114.6553 75° East 470 541 23,000  Level Los Angeles Center
09:04PM 34.3867 -114.4908 76° East 469 540 23,000  Level Los Angeles Center
09:05PM 34.4186 -114.3372 76° East 470 541 23,000  Level Los Angeles Center
09:05PM 34.4253 -114.3067 75° East 471 542 23,000  Level Los Angeles Center
09:07PM 34.4567 -114.1544 76° East 468 539 23,000  Level Los Angeles Center
09:08PM 34.4867 -114.0058 76° East 457 526 23,000  Level Los Angeles Center
09:09PM 34.5175 -113.8578 76° East 458 527 23,000  Level Los Angeles Center
09:10PM 34.5461 -113.7131 76° East 448 516 23,000  Level Los Angeles Center
09:11PM 34.5803 -113.5722 74° East 441 507 23,000  Level Los Angeles Center
09:12PM 34.6331 -113.4083 69° East 438 504 23,000  Level Los Angeles Center
09:13PM 34.6742 -113.2722 70° East 437 503 23,000  Level Los Angeles Center
09:14PM 34.7169 -113.1339 69° East 441 507 23,000  Level Los Angeles Center
09:15PM 34.7500 -113.0242 70° East 438 504 23,000  Level Los Angeles Center
09:16PM 34.8003 -112.8575 70° East 441 507 23,000  Level Los Angeles Center
09:17PM 34.8497 -112.6906 70° East 443 510 23,000  Level Los Angeles Center
09:18PM 34.8906 -112.5531 70° East 440 506 23,000  Level Los Angeles Center
09:19PM 34.9311 -112.4147 70° East 439 505 23,000  Level Los Angeles Center
09:20PM 34.9719 -112.2758 70° East 440 506 23,000  Level Los Angeles Center
09:21PM 35.0119 -112.1367 71° East 440 506 23,000  Level Los Angeles Center
09:22PM 35.0583 -111.9797 70° East 439 505 23,000  Level Los Angeles Center
09:23PM 35.1547 -111.8897 37° Northeast 437 503 23,000  Level Los Angeles Center
09:24PM 35.2533 -111.9669 327° Northwest 451 519 23,000  Level Los Angeles Center
09:25PM 35.2669 -112.1214 276° West 467 537 23,000  Level Los Angeles Center
09:26PM 35.3025 -112.2731 286° West 468 539 23,000  Level Los Angeles Center
09:27PM 35.3406 -112.4206 288° West 460 529 23,000  Level Los Angeles Center
09:28PM 35.3800 -112.5697 288° West 463 533 23,000 -711 Level Los Angeles Center
09:29PM 35.4314 -112.7706 287° West 458 527 21,400 -581 Descending Los Angeles Center
09:30PM 35.4647 -112.9058 287° West 407 468 21,800 146 Climbing Los Angeles Center
09:31PM 35.4967 -113.0344 287° West 416 479 21,700 -98 Descending Los Angeles Center
09:32PM 35.5403 -113.2044 288° West 434 499 21,600 -293 Descending Los Angeles Center
09:33PM 35.5772 -113.3506 287° West 442 509 21,100 -634 Descending Los Angeles Center
09:34PM 35.6136 -113.4986 287° West 453 521 20,300 -537 Descending Los Angeles Center
09:35PM 35.6400 -113.6483 282° West 455 524 20,000 -146 Descending Los Angeles Center
09:37PM 35.6614 -113.7969 280° West 447 514 20,000 -585 Level Los Angeles Center
09:38PM 35.6819 -113.9458 280° West 445 512 18,800 -1,854 Descending Los Angeles Center
09:39PM 35.7022 -114.0939 280° West 442 509 16,200 -2,129 Descending Los Angeles Center
09:40PM 35.7186 -114.2186 279° West 356 410 14,400 -2,000 Descending Los Angeles Center
09:40PM 35.7244 -114.2547 281° West 336 387 13,800 -1,967 Descending Los Angeles Center
09:41PM 35.7369 -114.3442 280° West 315 362 12,400 -1,644 Descending Los Angeles Center
09:41PM 35.7581 -114.3761 309° West 313 360 11,800 -1,672 Descending Los Angeles Center
09:42PM 35.7983 -114.4153 322° Northwest 306 352 10,700 -1,818 Descending Los Angeles Center
09:42PM 35.8278 -114.4456 320° Northwest 301 346 9,800 -1,800 Descending Los Angeles Center
09:43PM 35.8728 -114.4914 320° Northwest 299 344 8,600 -1,660 Descending Los Angeles Center
09:43PM 35.8747 -114.4933 321° Northwest 298 343 8,500 -590 Descending Los Angeles Center
09:44PM 35.9394 -114.5567 322° Northwest 290 334 8,000 -484 Descending Los Angeles Center
09:44PM 35.9386 -114.5542 112° Southeast 293 337 8,000  Level Los Angeles Center
09:45PM 35.9908 -114.6325 310° West 295 339 8,000  Level Los Angeles Center
09:45PM 35.9914 -114.6292 78° East 295 339 8,000  Level Los Angeles Center
09:46PM 36.0347 -114.7353 297° West 289 333 8,000 -367 Level Los Angeles Center
09:47PM 36.0619 -114.7975 298° West 278 320 7,400 -689 Descending Los Angeles Center
09:47PM 36.0639 -114.8008 306° West 281 323 7,300 -1,180 Descending Los Angeles Center
09:48PM 36.0967 -114.8767 298° West 266 306 6,200 -1,355 Descending Los Angeles Center
09:48PM 36.1056 -114.8964 299° West 271 312 5,900 -984 Descending Los Angeles Center
09:49PM 36.1281 -114.9514 297° West 241 277 5,200 -689 Descending Los Angeles Center
09:49PM 36.1328 -114.9825 281° West 243 280 5,200 -500 Level Los Angeles Center
09:50PM 36.1358 -115.0261 275° West 201 231 4,700 -730 Descending Los Angeles Center
09:50PM 36.1372 -115.0497 274° West 212 244 4,300 -984 Descending Los Angeles Center
09:51PM 36.1394 -115.0914 274° West 186 214 3,700 -968 Descending Los Angeles Center
09:51PM 36.1306 -115.1217 250° West 188 216 3,300 -885 Descending Los Angeles Center
09:52PM 36.1222 -115.1422 243° Southwest 153 176 2,800 -1,082 Descending Los Angeles Center
09:52PM 36.1025 -115.1536 205° Southwest 160 184 2,200 -878 Descending Los Angeles Center
09:54PM 36.0801 -115.1523 270° West  Level Estimated
10:01PM 36.0801 -115.1523 270° West  Level Estimated